Weather in Entebbe

Uganda     0°04′03″N   32°27′39″E
temp.,
°C
wind,
m/s
gust,
m/s
humid.,
%
clouds,
%
prec.,
mm/h
press.,
hPa
HPBL,
m
16 april, fri
fri1600:00+24s4570100 0.8 1011378
03:00+23wsw2271100 3.0 1010102
06:00+21wnw1180100 1.6 101142
09:00+22wnw2273100 2.8 1013269
12:00+24ssw446487 0.0 1012713
15:00+24s446483 0.0 1010614
18:00+24ssw54665 0.0 1009579
21:00+24ssw666875 0.0 1010613
17 april, sat
sat1700:00+24s7872100 0.9 1011519
03:00+24sse886812 3.1 1009752
06:00+24sse676874 2.2 1011620
09:00+23sse567393 6.9 1013433
12:00+24s5567100 4.0 1013556
15:00+22sw6679100 4.8 1011469
18:00+23sw7777100 0.1 1010473
21:00+23sse5674100 0.1 1012601
18 april, sun
sun1800:00+24sse7771100 0.4 1012716
03:00+23se6773100 4.3 1010473
06:00+23sse567299 4.5 1012354
09:00+24s666759 5.9 1014567
12:00+24sse566964 2.2 1014588
15:00+24s456789 2.3 1012835
18:00+24ssw6668100 0.0 1011716
21:00+24s6669100 0.0 1012664
19 april, mon
mon1900:00+24s6769100 2.0 1013661
03:00+24s4568100 4.3 1011468
06:00+23ssw346975 3.1 1012342
09:00+24s5567100 3.9 1014701
12:00+22ssw7779100 1.3 1014534
15:00+22sw5578100 2.0 1012775
18:00+23ssw7778100 0.0 1010615
21:00+23s6775100 0.0 1011745
20 april, tue
tue2000:00+23sse777565 2.5 1013754
03:00+23sse447392 3.3 1011635
06:00+22sse6677100 5.8 1012416
09:00+22ssw7682100 10.6 1015489
12:00+21sw8884100 1.7 1014427
15:00+22sw7780100 2.4 1011643
18:00+22wsw557599 0.0 1010564
21:00+22wsw4572100 0.0 1012406